Regional Weather Roundup
Issued by NWS Midland/Odessa, TX

Home | Current Version | Previous Version | Text Only | Print | Product List | Glossary On
Versions: 1 2 3 4 5 6 7 8 9 10 11 12 13 14 15 16 17 18 19 20 21 22 23 24 25 26 27 28 29 30 31 32 33 34 35 36 37 38 39 40 41 42 43 44 45 46 47 48 49 50
000
ASUS44 KMAF 230810
RWRMAF
MIDLAND AREA WEATHER ROUNDUP
NATIONAL WEATHER SERVICE MIDLAND TX
300 AM CDT TUE MAY 23 2017

...IN SOUTHWEST TEXAS AND SOUTHEAST NEW MEXICO...

CITY           SKY/WX    TMP DP  RH WIND       PRES   REMARKS
ALPINE         CLEAR     57  55  92 CALM      30.08S
ANDREWS        FAIR      58  53  82 NW8       29.98S
ARTESIA        CLEAR     57  52  82 CALM      30.00F
BIG SPRING     CLEAR     58  55  91 W5        29.97R
CARLSBAD       NOT AVBL
DRYDEN           N/A     68  66  93 CALM      29.92F
FORT STOCKTON  CLEAR     63  63 100 S8        29.93F
GUAD PASS      CLEAR     59  45  59 NE7       30.06S
HOBBS          CLEAR     54  50  87 W6        30.01F
MARFA          CLEAR     54  52  93 CALM      30.05F
MIDLAND AIRPK  CLEAR     59  55  87 N5        29.96R
MIDLAND INTL   CLEAR     58  54  86 W6        29.94S
ODESSA         CLEAR     59  53  80 CALM      29.95S
PECOS          CLEAR     61  57  87 NE6       29.91F
PRESIDIO       FAIR      71  57  61 NE9       29.95S
SEMINOLE       CLEAR     56  51  83 CALM      29.99S
SNYDER         MOCLDY    62  60  93 NE5       29.95R
WINK           PTCLDY    58  56  93 NE8       29.94F
$$
...OTHER STATIONS IN TEXAS...

CITY           SKY/WX    TMP DP  RH WIND       PRES   REMARKS
ABILENE        CLOUDY    60  53  77 SW7       29.91F
AMARILLO       LGT RAIN  55  52  89 NW15      30.09R
AUSTIN         CLOUDY    65  64  97 SW7       29.88R
BROWNSVILLE    MOCLDY    80  76  87 SE3       29.80F
CORPUS CHRISTI CLOUDY    74  72  93 NE12      29.84F
DALLAS FTW     CLOUDY    65  62  90 E8        29.87F
DEL RIO        PTCLDY    70  69  97 CALM      29.88F
EL PASO        PTCLDY    70  18  13 NE7       29.96S
HOUSTON INT    CLOUDY    68  64  87 NE3       29.86F
LUBBOCK        MOCLDY    59  54  83 N14       30.01R
SAN ANGELO     CLEAR     59  54  83 W3        29.86R
SAN ANTONIO    MOCLDY    68  64  87 N9        29.92R
WACO           MOCLDY    63  62  97 SW7       29.89F
WICHITA FALLS  NOT AVBL
$$
...OTHER LOCATIONS IN NEW MEXICO...

CITY           SKY/WX    TMP DP  RH WIND       PRES   REMARKS
ALAMOGORDO     CLEAR     59  18  20 N12       29.99S
ALBUQUERQUE    CLEAR     60  26  27 CALM      30.09S
CANNON AFB     MOCLDY    53  53 100 NE17      30.12R
CLOVIS         PTCLDY    52  45  76 N15       30.11F
HOLLOMAN AFB   CLEAR     60  18  20 NW10      30.02R
ROSWELL        CLEAR     57  49  74 N8        30.02S
RUIDOSO        CLEAR     50  45  81 W7        30.19S
SANTA FE       CLEAR     53  45  74 SE10      30.14S
TRUTH OR CONSE CLEAR     64  19  17 N10       30.07R
TUCUMCARI      HVY RAIN  53  48  83 NE16G25   30.16R
$$




USA.gov is the U.S. government's official web portal to all federal, state and local government web resources and services.